Regional Weather Roundup
Issued by NWS

Home | Current Version | Previous Version | Graphics & Text | Print | Product List | Glossary On
Versions: 1 2 3 4 5 6 7 8 9 10 11 12 13 14 15 16 17 18 19 20 21 22 23 24 25 26 27 28 29 30 31 32 33 34 35 36 37 38 39 40 41 42 43 44 45 46 47 48 49 50
000
ASUS43 KDMX 220701
RWRIA

WEATHER ROUNDUP FOR IOWA
NATIONAL WEATHER SERVICE DES MOINES IA
200 AM CDT TUE AUG 22 2017

NOTE: "FAIR" INDICATES FEW OR NO CLOUDS BELOW 12,000 FEET WITH NO
SIGNIFICANT WEATHER AND/OR OBSTRUCTIONS TO VISIBILITY.

* - THESE STATIONS ARE NOT NWS STATIONS...THUS NOT UNDER NWS
QUALITY CONTROL.  THEY ALSO DO NOT REPORT WEATHER SUCH
AS PRECIPITATION OR FOG.

IAZ001>003-012>014-020>022-031>034-043>046-220800-
   NORTHWEST IOWA

CITY           SKY/WX    TMP DP  RH WIND       PRES   REMARKS
CARROLL *      PTCLDY    64  64 100 CALM      29.99R
CHEROKEE *     CLEAR     61  61 100 CALM      30.01R
DENISON *      CLOUDY    64  64 100 W5        30.02R
LE MARS *      CLEAR    104 N/A N/A CALM      30.01R
ORANGE CITY *  CLEAR     63  63 100 NW7       30.01R
SHELDON *      CLEAR     61  61 100 NW8       29.99R
SIOUX CITY     CLEAR     62  62 100 W5        30.02R FOG
SPENCER        CLEAR     59  58  96 SW3       30.00R
STORM LAKE *   CLOUDY    61  61 100 NW9       30.01R FOG
$$

IAZ055>058-069>071-079>083-090>094-220800-
   SOUTHWEST IOWA

CITY           SKY/WX    TMP DP  RH WIND       PRES   REMARKS
ATLANTIC *     CLOUDY    64  63  94 CALM      30.00R
AUDUBON *      MOCLDY    64  61  88 CALM      30.01S
CLARINDA *     CLOUDY    64  64 100 CALM      29.99F
COUNCIL BLFS * CLOUDY    64  64 100 W5        30.01S FOG
CRESTON *      CLOUDY    64  64 100 S7G15     29.96F
HARLAN  *      CLOUDY    63  63 100 CALM      30.04R
LAMONI         RAIN      65  64  97 SE5       30.00F
RED OAK *      CLOUDY    64  64 100 NW6       30.00R
SHENANDOAH *   LGT RAIN  64  64 100 CALM      29.99R
$$

IAZ047>049-059>061-072>074-084-220800-
   CENTRAL IOWA

CITY           SKY/WX    TMP DP  RH WIND       PRES   REMARKS
AMES           CLOUDY    64  64 100 W3        29.98R
ANKENY *       CLOUDY    66  64  94 NW7       29.99F
BOONE *        CLOUDY    64  63  94 SW5       29.98R
CHARITON *     LGT RAIN  66  66 100 S9        29.97F
DES MOINES     CLOUDY    67  65  93 N9        29.97R
GRINNELL*      LGT RAIN  65  64  94 NW14      30.00R
KNOXVILLE *    CLOUDY    66  64  94 S13       29.92F
MARSHALLTOWN   CLOUDY    65  65 100 W7        29.96R
NEWTON *       CLOUDY    66  64  94 NW9G24    29.99R
PELLA *        RAIN      66  65  94 S12       29.94F
PERRY *          N/A     64  63  98 CALM      29.99R
$$

IAZ004>006-015-016-023>025-035-036-220800-
   NORTH CENTRAL IOWA

CITY           SKY/WX    TMP DP  RH WIND       PRES   REMARKS
ALGONA *       PTCLDY    63  63 100 NW7       29.97R
CLARION *      CLOUDY    63  63 100 SW5       29.97R
ESTHERVILLE    CLEAR     60  60 100 W6        29.98R
FORT DODGE *   CLOUDY    63  59  88 SW3       29.98R
FOREST CITY *    N/A     63  61  94 CALM      29.95S
WEBSTER CITY * CLOUDY    63  63 100 SW5       29.96R
IOWA FALLS *     N/A     64  63  94 SW3       29.97S
$$

IAZ007>011-017>019-026>030-037>042-050>054-066-220800-
   NORTHEAST IOWA

CITY           SKY/WX    TMP DP  RH WIND       PRES   REMARKS
CEDAR RAPIDS   LGT RAIN  66  65  96 SW9       29.92F
CHARLES CITY * CLOUDY    64  64 100 SW6       29.94F
CLINTON *      MOCLDY    70  67  90 W17G26    29.88S
DECORAH *      CLOUDY    63  63 100 SW3       29.90F
DUBUQUE        CLOUDY    67  65  93 NW13      29.92R
MONTICELLO *   CLOUDY    68  66  94 W8G15     29.92R
OELWEIN *      CLOUDY    64  64 100 W7        29.95S
WATERLOO       CLOUDY    64  63  96 W5        29.93S
$$

IAZ064-065-067-068-078-220800-
   EAST CENTRAL IOWA

CITY           SKY/WX    TMP DP  RH WIND       PRES   REMARKS
DAVENPORT      CLOUDY    69  66  90 W13       29.92R
IOWA CITY      CLOUDY    69  65  86 W10       29.96R
MUSCATINE *    CLOUDY    70  66  88 W9        29.93R
QUAD CITIES    RAIN      70  66  87 W12       29.90R
$$

IAZ062-063-075>077-085>089-095>099-220800-
   SOUTHEAST IOWA

CITY           SKY/WX    TMP DP  RH WIND       PRES   REMARKS
BURLINGTON     LGT RAIN  69  69 100 SW7       29.94F FOG
FAIRFIELD *    CLOUDY    68  66  94 SW10      29.95R
FORT MADISON * LGT RAIN  70  70 100 SW3       29.96F
KEOKUK *       RAIN      68  68 100 SW7       29.97R
OSKALOOSA *    LGT RAIN  67  66  97 W3        29.98R
OTTUMWA        LGT RAIN  69  69 100 SW9       29.96F
WASHINGTON *   CLOUDY    68  68 100 SW8       29.94S
$$

ABBREVIATIONS USED IN REMARKS
   TC - TEMPERATURES IN CELSIUS
  WCI - WIND CHILL INDEX
   HX - HEAT INDEX
  VSB - VISIBILITY
$$





USA.gov is the U.S. government's official web portal to all federal, state and local government web resources and services.